Location: Little Italy
(37.8008°N, 122.4108°W)
Time: 20:05:54
(UTC+00:00)

CZ-4B R/B - Pass Details

Date: 29 October 2020
Orbit: 389 x 462 km, 97.6° (Epoch: 24 November)

Event Time Altitude Azimuth Distance (km) Brightness Sun altitude
Rises 13:36:50 0° 194° (SSW) 2,479 5.1 -11.6°
Reaches altitude 10° 13:39:10 10° 210° (SSW) 1,607 4.0 -11.1°
Maximum altitude 13:41:57 23° 264° (W) 1,037 2.7 -10.6°
Drops below altitude 10° 13:44:45 10° 318° (NW) 1,606 3.7 -10.0°
Enters shadow 13:45:39 - 325° (NW) 1,927 4.2 -9.9°
